| time (UTC) | temp C | wind direction | speed KPH | gust KPH | rain 1hr cm | rain 24hr cm | rain mn cm | humidity % | barometer mb |
| 20260903190347 | 27 | 238 | 4.8 | 9.7 | 0.00 | 0.00 | 0.00 | 67 | 1023.1 |
| 20260903185355 | 27 | 223 | 1.6 | 8.0 | 0.00 | 0.00 | 0.00 | 67 | 1023.3 |
| 20260903184345 | 27 | 137 | 1.6 | 12.9 | 0.00 | 0.00 | 0.00 | 66 | 1023.0 |
| 20260903183342 | 28 | 214 | 4.8 | 11.3 | 0.00 | 0.00 | 0.00 | 65 | 1023.0 |
| 20260903182347 | 28 | 221 | 6.4 | 16.1 | 0.00 | 0.00 | 0.00 | 64 | 1022.9 |
| 20260903181359 | 28 | 209 | 8.0 | 16.1 | 0.00 | 0.00 | 0.00 | 62 | 1022.8 |
| 20260903180348 | 28 | 221 | 8.0 | 16.1 | 0.00 | 0.00 | 0.00 | 62 | 1022.8 |
| 20260903175355 | 28 | 220 | 6.4 | 14.5 | 0.00 | 0.00 | 0.00 | 60 | 1022.8 |
| 20260903174351 | 29 | 180 | 6.4 | 14.5 | 0.00 | 0.00 | 0.00 | 59 | 1022.7 |
| 20260903173344 | 30 | 206 | 9.7 | 14.5 | 0.00 | 0.00 | 0.00 | 56 | 1022.7 |
| 20260903172357 | 30 | 53 | 1.6 | 14.5 | 0.00 | 0.00 | 0.00 | 55 | 1022.5 |
| 20260903171355 | 30 | 230 | 3.2 | 16.1 | 0.00 | 0.00 | 0.00 | 55 | 1022.6 |
| 20260903170346 | 30 | 240 | 6.4 | 11.3 | 0.00 | 0.00 | 0.00 | 54 | 1022.5 |
| 20260903165350 | 30 | 143 | 6.4 | 19.3 | 0.00 | 0.00 | 0.00 | 54 | 1022.6 |
| 20260903164351 | 30 | 246 | 6.4 | 16.1 | 0.00 | 0.00 | 0.00 | 54 | 1022.6 |
| 20260903163347 | 30 | 208 | 8.0 | 22.5 | 0.00 | 0.00 | 0.00 | 54 | 1022.4 |
| 20260903162340 | 30 | 208 | 4.8 | 22.5 | 0.00 | 0.00 | 0.00 | 54 | 1022.4 |
| 20260903161344 | 30 | 260 | 6.4 | 22.5 | 0.00 | 0.00 | 0.00 | 54 | 1022.5 |
| 20260903160340 | 31 | 220 | 11.3 | 22.5 | 0.00 | 0.00 | 0.00 | 53 | 1022.5 |
| 20260903155354 | 31 | 195 | 9.7 | 22.5 | 0.00 | 0.00 | 0.00 | 53 | 1022.5 |
| 20260903154350 | 31 | 187 | 9.7 | 27.4 | 0.00 | 0.00 | 0.00 | 51 | 1022.6 |
| 20260903153344 | 31 | 216 | 14.5 | 24.1 | 0.00 | 0.00 | 0.00 | 50 | 1022.8 |
| 20260903152349 | 31 | 220 | 11.3 | 17.7 | 0.00 | 0.00 | 0.00 | 48 | 1022.7 |
| 20260903151347 | 30 | 189 | 6.4 | 16.1 | 0.00 | 0.00 | 0.00 | 53 | 1022.7 |
| 20260903150346 | 30 | 159 | 6.4 | 20.9 | 0.00 | 0.00 | 0.00 | 56 | 1022.7 |
| 20260903145355 | 30 | 137 | 17.7 | 27.4 | 0.00 | 0.00 | 0.00 | 56 | 1022.7 |
| 20260903144349 | 30 | 136 | 6.4 | 25.7 | 0.00 | 0.00 | 0.00 | 56 | 1022.8 |
| 20260903143347 | 30 | 144 | 6.4 | 22.5 | 0.00 | 0.00 | 0.00 | 58 | 1022.8 |
| 20260903142359 | 31 | 131 | 9.7 | 22.5 | 0.00 | 0.00 | 0.00 | 56 | 1022.9 |
| 20260903141400 | 31 | 210 | 11.3 | 20.9 | 0.00 | 0.00 | 0.00 | 52 | 1022.9 |
| 20260903140356 | 31 | 172 | 3.2 | 16.1 | 0.00 | 0.00 | 0.00 | 52 | 1023.0 |
| 20260903135352 | 31 | 201 | 6.4 | 25.7 | 0.00 | 0.00 | 0.00 | 52 | 1022.9 |
| 20260903134351 | 31 | 208 | 6.4 | 22.5 | 0.00 | 0.00 | 0.00 | 51 | 1023.2 |
| 20260903133343 | 31 | 249 | 3.2 | 22.5 | 0.00 | 0.00 | 0.00 | 52 | 1023.3 |
| 20260903132355 | 30 | 101 | 4.8 | 22.5 | 0.00 | 0.00 | 0.00 | 51 | 1023.4 |
| 20260903131355 | 30 | 216 | 14.5 | 25.7 | 0.00 | 0.00 | 0.00 | 50 | 1023.5 |
| 20260903130353 | 31 | 209 | 12.9 | 20.9 | 0.00 | 0.00 | 0.00 | 47 | 1023.4 |
| 20260903125349 | 31 | 221 | 11.3 | 17.7 | 0.00 | 0.00 | 0.00 | 46 | 1023.5 |
| 20260903124400 | 31 | 193 | 9.7 | 17.7 | 0.00 | 0.00 | 0.00 | 42 | 1023.5 |
| 20260903123356 | 31 | 235 | 11.3 | 22.5 | 0.00 | 0.00 | 0.00 | 43 | 1023.5 |
| 20260903122353 | 31 | 118 | 6.4 | 20.9 | 0.00 | 0.00 | 0.00 | 38 | 1023.6 |
| 20260903121354 | 31 | 118 | 14.5 | 25.7 | 0.00 | 0.00 | 0.00 | 38 | 1023.5 |
| 20260903120348 | 31 | 101 | 6.4 | 16.1 | 0.00 | 0.00 | 0.00 | 37 | 1023.6 |
| 20260903115402 | 31 | 144 | 4.8 | 16.1 | 0.00 | 0.00 | 0.00 | 37 | 1023.5 |
| 20260903114358 | 31 | 178 | 3.2 | 16.1 | 0.00 | 0.00 | 0.00 | 38 | 1023.5 |
| 20260903113355 | 31 | 213 | 8.0 | 19.3 | 0.00 | 0.00 | 0.00 | 37 | 1023.7 |
| 20260903112350 | 31 | 204 | 9.7 | 19.3 | 0.00 | 0.00 | 0.00 | 37 | 1023.7 |
| 20260903111348 | 31 | 122 | 6.4 | 17.7 | 0.00 | 0.00 | 0.00 | 38 | 1023.7 |
| 20260903110402 | 31 | 122 | 8.0 | 16.1 | 0.00 | 0.00 | 0.00 | 38 | 1023.8 |
| 20260903105354 | 30 | 218 | 6.4 | 17.7 | 0.00 | 0.00 | 0.00 | 37 | 1023.8 |
| 20260903104344 | 30 | 127 | 9.7 | 16.1 | 0.00 | 0.00 | 0.00 | 40 | 1023.9 |
| 20260903103353 | 30 | 180 | 4.8 | 17.7 | 0.00 | 0.00 | 0.00 | 43 | 1024.1 |
| 20260903102343 | 30 | 151 | 6.4 | 12.9 | 0.00 | 0.00 | 0.00 | 43 | 1024.2 |
| 20260903101341 | 30 | 118 | 6.4 | 16.1 | 0.00 | 0.00 | 0.00 | 45 | 1024.3 |
| 20260903100401 | 30 | 110 | 9.7 | 17.7 | 0.00 | 0.00 | 0.00 | 46 | 1024.2 |
| 20260903095352 | 30 | 180 | 3.2 | 14.5 | 0.00 | 0.00 | 0.00 | 46 | 1024.3 |
| 20260903094346 | 30 | 168 | 3.2 | 9.7 | 0.00 | 0.00 | 0.00 | 48 | 1024.4 |
| 20260903093346 | 29 | 247 | 0.0 | 8.0 | 0.00 | 0.00 | 0.00 | 48 | 1024.4 |
| 20260903092359 | 29 | 260 | 4.8 | 8.0 | 0.00 | 0.00 | 0.00 | 47 | 1024.4 |
| 20260903091351 | 28 | 290 | 3.2 | 6.4 | 0.00 | 0.00 | 0.00 | 48 | 1024.3 |
| 20260903090353 | 28 | 292 | 0.0 | 6.4 | 0.00 | 0.00 | 0.00 | 49 | 1024.3 |
| 20260903085349 | 27 | 32 | 0.0 | 3.2 | 0.00 | 0.00 | 0.00 | 51 | 1024.1 |
| 20260903084345 | 27 | 37 | 0.0 | 4.8 | 0.00 | 0.00 | 0.00 | 52 | 1024.2 |
| 20260903083344 | 26 | 38 | 1.6 | 4.8 | 0.00 | 0.00 | 0.00 | 53 | 1024.1 |
| 20260903082357 | 26 | 38 | 1.6 | 4.8 | 0.00 | 0.00 | 0.00 | 55 | 1023.9 |
| 20260903081359 | 26 | 38 | 0.0 | 3.2 | 0.00 | 0.00 | 0.00 | 56 | 1024.2 |
| 20260903080356 | 25 | 38 | 1.6 | 3.2 | 0.00 | 0.00 | 0.00 | 56 | 1024.0 |
| 20260903075352 | 25 | 38 | 0.0 | 3.2 | 0.00 | 0.00 | 0.00 | 59 | 1024.0 |
| 20260903074351 | 24 | 38 | 0.0 | 3.2 | 0.00 | 0.00 | 0.00 | 60 | 1023.9 |
| 20260903073352 | 24 | 38 | 1.6 | 3.2 | 0.00 | 0.00 | 0.00 | 61 | 1024.0 |
| 20260903072345 | 23 | 38 | 1.6 | 3.2 | 0.00 | 0.00 | 0.00 | 64 | 1024.1 |
| 20260903071343 | 23 | 38 | 1.6 | 3.2 | 0.00 | 0.00 | 0.00 | 65 | 1023.9 |
| 20260903070345 | 22 | 38 | 0.0 | 3.2 | 0.00 | 0.00 | 0.00 | 67 | 1023.9 |
| 20260903065400 | 22 | 38 | 1.6 | 4.8 | 0.00 | 0.00 | 0.00 | 67 | 1023.9 |
| 20260903064343 | 22 | 40 | 0.0 | 1.6 | 0.00 | 0.00 | 0.00 | 68 | 1023.9 |
| 20260903063340 | 22 | 39 | 0.0 | 1.6 | 0.00 | 0.00 | 0.00 | 70 | 1023.8 |
| 20260903062353 | 21 | 40 | 0.0 | 4.8 | 0.00 | 0.00 | 0.00 | 70 | 1023.7 |
| 20260903061357 | 21 | 39 | 4.8 | 6.4 | 0.00 | 0.00 | 0.00 | 70 | 1023.6 |
| 20260903060343 | 21 | 40 | 1.6 | 3.2 | 0.00 | 0.00 | 0.00 | 71 | 1023.5 |
| 20260903055343 | 21 | 40 | 0.0 | 3.2 | 0.00 | 0.00 | 0.00 | 72 | 1023.5 |
| 20260903054348 | 21 | 40 | 1.6 | 3.2 | 0.00 | 0.00 | 0.00 | 72 | 1023.3 |
| 20260903053356 | 21 | 40 | 0.0 | 1.6 | 0.00 | 0.00 | 0.00 | 71 | 1023.3 |
| 20260903052355 | 21 | 40 | 0.0 | 3.2 | 0.00 | 0.00 | 0.00 | 72 | 1023.1 |
| 20260903051356 | 21 | 40 | 0.0 | 1.6 | 0.00 | 0.00 | 0.00 | 71 | 1023.1 |
| 20260903050343 | 21 | 40 | 0.0 | 1.6 | 0.00 | 0.00 | 0.00 | 72 | 1023.1 |
| 20260903045357 | 21 | 40 | 0.0 | 3.2 | 0.00 | 0.00 | 0.00 | 71 | 1022.9 |
| 20260903044338 | 21 | 40 | 1.6 | 4.8 | 0.00 | 0.00 | 0.00 | 72 | 1022.9 |
| 20260903043344 | 21 | 40 | 1.6 | 6.4 | 0.00 | 0.00 | 0.00 | 71 | 1022.9 |
| 20260903042355 | 21 | 41 | 0.0 | 3.2 | 0.00 | 0.00 | 0.00 | 71 | 1022.9 |
| 20260903041356 | 21 | 41 | 0.0 | 3.2 | 0.00 | 0.00 | 0.00 | 71 | 1022.9 |
| 20260903040343 | 21 | 41 | 1.6 | 6.4 | 0.00 | 0.00 | 0.00 | 71 | 1023.0 |
| 20260903035340 | 21 | 40 | 1.6 | 4.8 | 0.00 | 0.00 | 0.00 | 71 | 1023.1 |
| 20260903034337 | 21 | 40 | 3.2 | 6.4 | 0.00 | 0.00 | 0.00 | 71 | 1023.2 |
| 20260903033358 | 21 | 40 | 1.6 | 6.4 | 0.00 | 0.00 | 0.00 | 70 | 1023.2 |
| 20260903032355 | 21 | 41 | 0.0 | 4.8 | 0.00 | 0.00 | 0.00 | 70 | 1023.2 |
| 20260903031351 | 21 | 41 | 1.6 | 3.2 | 0.00 | 0.00 | 0.00 | 70 | 1023.2 |
| 20260903030352 | 21 | 41 | 0.0 | 3.2 | 0.00 | 0.00 | 0.00 | 70 | 1023.3 |
| 20260903025349 | 21 | 41 | 1.6 | 4.8 | 0.00 | 0.00 | 0.00 | 70 | 1023.4 |
| 20260903024349 | 21 | 41 | 0.0 | 4.8 | 0.00 | 0.00 | 0.00 | 70 | 1023.4 |
| 20260903023349 | 22 | 41 | 0.0 | 0.0 | 0.00 | 0.00 | 0.00 | 71 | 1023.4 |
| 20260903022341 | 22 | 41 | 0.0 | 1.6 | 0.00 | 0.00 | 0.00 | 71 | 1023.4 |
| 20260903021342 | 22 | 41 | 0.0 | 3.2 | 0.00 | 0.00 | 0.00 | 70 | 1023.4 |
| 20260903020339 | 22 | 41 | 1.6 | 3.2 | 0.00 | 0.00 | 0.00 | 71 | 1023.4 |
| 20260903015356 | 22 | 41 | 0.0 | 3.2 | 0.00 | 0.00 | 0.00 | 71 | 1023.5 |
| 20260903014342 | 22 | 41 | 0.0 | 4.8 | 0.00 | 0.00 | 0.00 | 71 | 1023.4 |
| 20260903013346 | 22 | 41 | 0.0 | 8.0 | 0.00 | 0.00 | 0.00 | 70 | 1023.4 |
| 20260903012343 | 22 | 42 | 3.2 | 8.0 | 0.00 | 0.00 | 0.00 | 70 | 1023.4 |
| 20260903011352 | 22 | 44 | 4.8 | 6.4 | 0.00 | 0.00 | 0.00 | 69 | 1023.5 |
| 20260903010353 | 22 | 45 | 1.6 | 4.8 | 0.00 | 0.00 | 0.00 | 68 | 1023.6 |
| 20260903005351 | 22 | 45 | 3.2 | 4.8 | 0.00 | 0.00 | 0.00 | 68 | 1023.5 |
| 20260903004351 | 22 | 45 | 0.0 | 3.2 | 0.00 | 0.00 | 0.00 | 68 | 1023.6 |
| 20260903003347 | 22 | 45 | 0.0 | 3.2 | 0.00 | 0.00 | 0.00 | 67 | 1023.7 |
| 20260903002342 | 23 | 45 | 1.6 | 3.2 | 0.00 | 0.00 | 0.00 | 67 | 1023.7 |
| 20260903001342 | 23 | 45 | 0.0 | 1.6 | 0.00 | 0.00 | 0.00 | 67 | 1023.7 |
| 20260903000347 | 23 | 45 | 0.0 | 1.6 | 0.00 | 0.00 | 0.00 | 67 | 1023.6 |
| 20260902235345 | 23 | 45 | 0.0 | 3.2 | 0.00 | 0.00 | 0.00 | 66 | 1023.7 |
| 20260902234341 | 23 | 45 | 3.2 | 4.8 | 0.00 | 0.00 | 0.00 | 66 | 1023.6 |
| 20260902233359 | 23 | 45 | 1.6 | 6.4 | 0.00 | 0.00 | 0.00 | 66 | 1023.5 |
| 20260902232356 | 23 | 45 | 3.2 | 6.4 | 0.00 | 0.00 | 0.00 | 65 | 1023.5 |
| 20260902231342 | 23 | 49 | 3.2 | 6.4 | 0.00 | 0.00 | 0.00 | 64 | 1023.5 |
| 20260902230356 | 23 | 93 | 1.6 | 4.8 | 0.00 | 0.00 | 0.00 | 64 | 1023.5 |
| 20260902225354 | 23 | 96 | 3.2 | 6.4 | 0.00 | 0.00 | 0.00 | 64 | 1023.5 |
| 20260902224355 | 24 | 135 | 0.0 | 3.2 | 0.00 | 0.00 | 0.00 | 64 | 1023.5 |
| 20260902223356 | 24 | 135 | 0.0 | 1.6 | 0.00 | 0.00 | 0.00 | 64 | 1023.5 |
| 20260902222355 | 24 | 135 | 1.6 | 3.2 | 0.00 | 0.00 | 0.00 | 63 | 1023.5 |
| 20260902221340 | 24 | 135 | 0.0 | 1.6 | 0.00 | 0.00 | 0.00 | 63 | 1023.6 |
| 20260902220344 | 24 | 135 | 0.0 | 1.6 | 0.00 | 0.00 | 0.00 | 62 | 1023.6 |
| 20260902215400 | 24 | 135 | 0.0 | 1.6 | 0.00 | 0.00 | 0.00 | 62 | 1023.6 |
| 20260902214338 | 25 | 135 | 0.0 | 3.2 | 0.00 | 0.00 | 0.00 | 61 | 1023.6 |
| 20260902213341 | 25 | 135 | 0.0 | 4.8 | 0.00 | 0.00 | 0.00 | 60 | 1023.5 |
| 20260902212356 | 25 | 135 | 0.0 | 0.0 | 0.00 | 0.00 | 0.00 | 60 | 1023.6 |
| 20260902211355 | 25 | 135 | 0.0 | 1.6 | 0.00 | 0.00 | 0.00 | 60 | 1023.4 |
| 20260902210341 | 25 | 135 | 1.6 | 4.8 | 0.00 | 0.00 | 0.00 | 59 | 1023.5 |
| 20260902205339 | 25 | 135 | 0.0 | 3.2 | 0.00 | 0.00 | 0.00 | 59 | 1023.5 |
| 20260902204357 | 25 | 135 | 0.0 | 1.6 | 0.00 | 0.00 | 0.00 | 59 | 1023.3 |
| 20260902203343 | 25 | 135 | 0.0 | 1.6 | 0.00 | 0.00 | 0.00 | 58 | 1023.5 |
| 20260902202400 | 25 | 135 | 0.0 | 1.6 | 0.00 | 0.00 | 0.00 | 59 | 1023.4 |
| 20260902201401 | 25 | 135 | 1.6 | 4.8 | 0.00 | 0.00 | 0.00 | 58 | 1023.4 |
| 20260902200340 | 25 | 135 | 1.6 | 4.8 | 0.00 | 0.00 | 0.00 | 59 | 1023.3 |
| 20260902195359 | 25 | 135 | 0.0 | 6.4 | 0.00 | 0.00 | 0.00 | 59 | 1023.2 |
| 20260902194338 | 26 | 136 | 0.0 | 4.8 | 0.00 | 0.00 | 0.00 | 59 | 1023.2 |
| 20260902193346 | 26 | 136 | 3.2 | 6.4 | 0.00 | 0.00 | 0.00 | 60 | 1023.2 |
| 20260902192359 | 26 | 136 | 1.6 | 4.8 | 0.00 | 0.00 | 0.00 | 59 | 1023.1 |
| 20260902191356 | 26 | 136 | 0.0 | 4.8 | 0.00 | 0.00 | 0.00 | 59 | 1022.9 |